Time,TemperatureF,DewpointF,PressureIn,WindDirection,WindDirectionDegrees,WindSpeedMPH,WindSpeedGustMPH,Humidity,HourlyPrecipIn,Conditions,Clouds,dailyrainin,SoftwareType,DateUTC
2013-02-11 00:00:00,42.1,41.0,30.12,SW,222,1.0,1.0,96,0.00,,,0.15,Wunderground v.1.15,2013-02-11 05:00:00,
2013-02-11 00:03:00,42.2,41.1,30.12,SW,225,0.0,2.0,96,0.00,,,-99.99,WeatherLink 6.0.0,2013-02-11 05:03:00,
2013-02-11 00:04:00,42.0,40.7,30.13,SW,222,1.0,1.0,95,0.00,,,0.00,Wunderground v.1.15,2013-02-11 05:04:00,
2013-02-11 00:09:00,41.8,40.5,30.13,SW,222,0.0,1.0,95,0.00,,,0.00,Wunderground v.1.15,2013-02-11 05:09:00,
2013-02-11 00:15:00,41.6,40.3,30.12,SW,222,0.0,0.0,95,0.00,,,0.00,Wunderground v.1.15,2013-02-11 05:15:00,
2013-02-11 00:20:00,41.6,40.3,30.12,SW,222,0.0,0.0,95,0.00,,,0.00,Wunderground v.1.15,2013-02-11 05:20:00,
2013-02-11 00:26:00,41.8,40.7,30.12,SW,222,0.0,0.0,96,0.00,,,0.00,Wunderground v.1.15,2013-02-11 05:26:00,
2013-02-11 00:31:00,41.9,40.8,30.11,SW,222,1.0,1.0,96,0.00,,,0.00,Wunderground v.1.15,2013-02-11 05:31:00,
2013-02-11 00:36:00,41.8,40.5,30.12,WSW,252,0.0,1.0,95,0.00,,,0.00,Wunderground v.1.15,2013-02-11 05:36:00,
2013-02-11 00:42:00,41.8,40.7,30.12,WSW,252,0.0,0.0,96,0.00,,,0.00,Wunderground v.1.15,2013-02-11 05:42:00,
2013-02-11 00:47:00,41.8,40.7,30.13,WSW,252,0.0,0.0,96,0.00,,,0.00,Wunderground v.1.15,2013-02-11 05:47:00,
2013-02-11 00:53:00,41.7,40.4,30.13,WSW,255,0.0,1.0,95,0.00,,,0.00,Wunderground v.1.15,2013-02-11 05:53:00,
2013-02-11 00:58:00,41.7,40.6,30.12,WNW,293,2.0,3.0,96,0.00,,,0.00,Wunderground v.1.15,2013-02-11 05:58:00,
2013-02-11 01:03:00,41.6,40.5,30.12,WSW,247,0.0,4.0,96,0.00,,,-99.99,WeatherLink 6.0.0,2013-02-11 06:03:00,
2013-02-11 01:09:00,41.6,40.5,30.11,WNW,298,0.0,3.0,96,0.00,,,0.00,Wunderground v.1.15,2013-02-11 06:09:00,
2013-02-11 01:14:00,41.6,40.5,30.11,WNW,298,0.0,2.0,96,0.00,,,0.00,Wunderground v.1.15,2013-02-11 06:14:00,
2013-02-11 01:20:00,41.6,40.5,30.11,WNW,298,0.0,0.0,96,0.00,,,0.00,Wunderground v.1.15,2013-02-11 06:20:00,
2013-02-11 01:26:00,41.6,40.5,30.12,WNW,299,1.0,3.0,96,0.00,,,0.00,Wunderground v.1.15,2013-02-11 06:26:00,
2013-02-11 01:31:00,41.6,40.5,30.11,WNW,299,2.0,2.0,96,0.00,,,0.00,Wunderground v.1.15,2013-02-11 06:31:00,
2013-02-11 01:36:00,41.6,40.5,30.11,WNW,294,2.0,2.0,96,0.00,,,0.00,Wunderground v.1.15,2013-02-11 06:36:00,
2013-02-11 01:42:00,41.6,40.5,30.11,WNW,294,1.0,5.0,96,0.00,,,0.00,Wunderground v.1.15,2013-02-11 06:42:00,
2013-02-11 01:47:00,41.6,40.5,30.11,WNW,294,2.0,5.0,96,0.00,,,0.00,Wunderground v.1.15,2013-02-11 06:47:00,
2013-02-11 01:53:00,41.7,40.6,30.11,WNW,295,1.0,3.0,96,0.00,,,0.00,Wunderground v.1.15,2013-02-11 06:53:00,
2013-02-11 01:58:00,41.8,40.5,30.10,WNW,296,0.0,3.0,95,0.00,,,0.00,Wunderground v.1.15,2013-02-11 06:58:00,
2013-02-11 02:03:00,41.8,40.7,30.10,WNW,292,2.0,5.0,96,0.00,,,-99.99,WeatherLink 6.0.0,2013-02-11 07:03:00,
2013-02-11 02:08:00,41.9,40.6,30.09,WNW,296,1.0,2.0,95,0.00,,,0.00,Wunderground v.1.15,2013-02-11 07:08:00,
2013-02-11 02:13:00,41.8,40.5,30.08,WNW,296,0.0,2.0,95,0.00,,,0.00,Wunderground v.1.15,2013-02-11 07:13:00,
2013-02-11 02:18:00,41.9,40.6,30.08,WNW,296,0.0,2.0,95,0.00,,,0.00,Wunderground v.1.15,2013-02-11 07:18:00,
2013-02-11 02:23:00,42.0,40.7,30.09,WNW,296,0.0,2.0,95,0.00,,,0.00,Wunderground v.1.15,2013-02-11 07:23:00,
2013-02-11 02:28:00,42.0,40.7,30.09,WNW,296,1.0,2.0,95,0.00,,,0.00,Wunderground v.1.15,2013-02-11 07:28:00,
2013-02-11 02:33:00,42.0,40.7,30.08,WNW,295,0.0,3.0,95,0.00,,,0.00,Wunderground v.1.15,2013-02-11 07:33:00,
2013-02-11 02:38:00,42.0,40.7,30.08,WNW,296,0.0,3.0,95,0.00,,,0.00,Wunderground v.1.15,2013-02-11 07:38:00,
2013-02-11 02:43:00,42.1,40.8,30.07,WNW,296,0.0,2.0,95,0.00,,,0.00,Wunderground v.1.15,2013-02-11 07:43:00,
2013-02-11 02:48:00,42.4,41.3,30.07,WNW,295,0.0,2.0,96,0.00,,,0.00,Wunderground v.1.15,2013-02-11 07:48:00,
2013-02-11 02:53:00,42.4,41.1,30.07,WNW,296,0.0,1.0,95,0.00,,,0.00,Wunderground v.1.15,2013-02-11 07:53:00,
2013-02-11 02:58:00,42.4,41.1,30.06,WNW,296,0.0,1.0,95,0.00,,,0.00,Wunderground v.1.15,2013-02-11 07:58:00,
2013-02-11 03:03:00,42.6,41.3,30.07,WNW,295,0.0,0.0,95,0.00,,,0.00,Wunderground v.1.15,2013-02-11 08:03:00,
2013-02-11 03:08:00,42.6,41.3,30.06,WNW,296,0.0,0.0,95,0.00,,,0.00,Wunderground v.1.15,2013-02-11 08:08:00,
2013-02-11 03:13:00,42.5,41.2,30.06,WNW,295,0.0,0.0,95,0.00,,,0.00,Wunderground v.1.15,2013-02-11 08:13:00,
2013-02-11 03:18:00,42.5,41.2,30.05,WNW,296,0.0,0.0,95,0.00,,,0.00,Wunderground v.1.15,2013-02-11 08:18:00,
2013-02-11 03:23:00,42.6,41.3,30.05,WNW,296,0.0,0.0,95,0.00,,,0.00,Wunderground v.1.15,2013-02-11 08:23:00,
2013-02-11 03:28:00,42.6,41.3,30.04,WNW,295,0.0,0.0,95,0.00,,,0.00,Wunderground v.1.15,2013-02-11 08:28:00,
2013-02-11 03:33:00,42.6,41.3,30.04,North,-999,0.0,0.0,95,0.00,,,-99.99,WeatherLink 6.0.0,2013-02-11 08:33:00,
2013-02-11 03:38:00,42.6,41.5,30.04,WNW,295,0.0,0.0,96,0.00,,,0.00,Wunderground v.1.15,2013-02-11 08:38:00,
2013-02-11 03:43:00,42.8,41.7,30.04,WNW,296,0.0,1.0,96,0.00,,,0.00,Wunderground v.1.15,2013-02-11 08:43:00,
2013-02-11 03:48:00,42.8,41.7,30.04,WNW,296,0.0,2.0,96,0.00,,,0.00,Wunderground v.1.15,2013-02-11 08:48:00,
2013-02-11 03:53:00,42.7,41.6,30.04,WNW,295,0.0,2.0,96,0.00,,,0.00,Wunderground v.1.15,2013-02-11 08:53:00,
2013-02-11 03:58:00,42.6,41.5,30.05,WNW,295,0.0,2.0,96,0.00,,,0.00,Wunderground v.1.15,2013-02-11 08:58:00,
2013-02-11 04:03:00,42.7,41.6,30.04,WNW,295,0.0,4.0,96,0.00,,,0.00,Wunderground v.1.15,2013-02-11 09:03:00,
2013-02-11 04:08:00,42.8,41.7,30.04,WNW,296,0.0,4.0,96,0.00,,,0.00,Wunderground v.1.15,2013-02-11 09:08:00,
2013-02-11 04:13:00,42.8,41.7,30.05,WNW,296,0.0,4.0,96,0.00,,,0.00,Wunderground v.1.15,2013-02-11 09:13:00,
2013-02-11 04:18:00,42.9,41.8,30.05,WNW,296,0.0,4.0,96,0.00,,,0.01,Wunderground v.1.15,2013-02-11 09:18:00,
2013-02-11 04:23:00,43.0,42.2,30.04,WNW,296,0.0,1.0,97,0.00,,,0.01,Wunderground v.1.15,2013-02-11 09:23:00,
2013-02-11 04:28:00,43.1,42.3,30.05,WNW,295,0.0,1.0,97,0.00,,,0.01,Wunderground v.1.15,2013-02-11 09:28:00,
2013-02-11 04:34:00,43.2,42.4,30.04,WNW,292,1.0,4.0,97,0.01,,,-99.99,WeatherLink 6.0.0,2013-02-11 09:34:00,
2013-02-11 04:39:00,43.8,43.0,30.04,WNW,296,0.0,1.0,97,0.00,,,0.01,Wunderground v.1.15,2013-02-11 09:39:00,
2013-02-11 04:44:00,44.0,43.2,30.04,WNW,296,0.0,0.0,97,0.00,,,0.01,Wunderground v.1.15,2013-02-11 09:44:00,
2013-02-11 04:49:00,44.0,43.2,30.04,WNW,295,0.0,0.0,97,0.00,,,0.02,Wunderground v.1.15,2013-02-11 09:49:00,
2013-02-11 04:54:00,44.1,43.3,30.04,WNW,295,0.0,0.0,97,0.00,,,0.02,Wunderground v.1.15,2013-02-11 09:54:00,
2013-02-11 04:59:00,44.0,43.2,30.04,WNW,295,0.0,0.0,97,0.00,,,0.02,Wunderground v.1.15,2013-02-11 09:59:00,
2013-02-11 05:04:00,43.9,43.1,30.05,WNW,296,0.0,1.0,97,0.00,,,0.02,Wunderground v.1.15,2013-02-11 10:04:00,
2013-02-11 05:09:00,43.8,43.0,30.04,WNW,296,0.0,1.0,97,0.00,,,0.02,Wunderground v.1.15,2013-02-11 10:09:00,
2013-02-11 05:14:00,43.7,42.9,30.05,WNW,296,0.0,0.0,97,0.00,,,0.02,Wunderground v.1.15,2013-02-11 10:14:00,
2013-02-11 05:19:00,43.8,43.0,30.05,WNW,296,0.0,0.0,97,0.00,,,0.02,Wunderground v.1.15,2013-02-11 10:19:00,
2013-02-11 05:24:00,43.8,43.0,30.05,WNW,295,0.0,0.0,97,0.00,,,0.02,Wunderground v.1.15,2013-02-11 10:24:00,
2013-02-11 05:29:00,43.8,43.0,30.06,WNW,296,0.0,0.0,97,0.00,,,0.02,Wunderground v.1.15,2013-02-11 10:29:00,
2013-02-11 05:34:00,43.8,43.0,30.06,WNW,296,0.0,1.0,97,0.00,,,0.03,Wunderground v.1.15,2013-02-11 10:34:00,
2013-02-11 05:39:00,43.8,43.0,30.06,WNW,295,0.0,1.0,97,0.00,,,0.03,Wunderground v.1.15,2013-02-11 10:39:00,
2013-02-11 05:44:00,43.9,43.1,30.06,WNW,296,0.0,0.0,97,0.00,,,0.03,Wunderground v.1.15,2013-02-11 10:44:00,
2013-02-11 05:49:00,44.0,43.2,30.06,WNW,296,0.0,0.0,97,0.00,,,0.03,Wunderground v.1.15,2013-02-11 10:49:00,
2013-02-11 05:54:00,44.4,43.6,30.06,WNW,295,0.0,0.0,97,0.00,,,0.03,Wunderground v.1.15,2013-02-11 10:54:00,
2013-02-11 05:59:00,44.5,43.7,30.05,WNW,296,0.0,1.0,97,0.00,,,0.03,Wunderground v.1.15,2013-02-11 10:59:00,
2013-02-11 06:04:00,44.7,43.9,30.05,WNW,295,0.0,0.0,97,0.00,,,0.03,Wunderground v.1.15,2013-02-11 11:04:00,
2013-02-11 06:09:00,44.7,43.9,30.05,WNW,296,0.0,0.0,97,0.00,,,0.03,Wunderground v.1.15,2013-02-11 11:09:00,
2013-02-11 06:14:00,44.7,43.9,30.04,WNW,296,0.0,0.0,97,0.00,,,0.03,Wunderground v.1.15,2013-02-11 11:14:00,
2013-02-11 06:19:00,44.7,43.9,30.03,WNW,295,0.0,0.0,97,0.00,,,0.04,Wunderground v.1.15,2013-02-11 11:19:00,
2013-02-11 06:24:00,44.7,43.9,30.03,WNW,296,0.0,0.0,97,0.00,,,0.04,Wunderground v.1.15,2013-02-11 11:24:00,
2013-02-11 06:29:00,44.7,43.9,30.03,WNW,296,0.0,0.0,97,0.00,,,0.04,Wunderground v.1.15,2013-02-11 11:29:00,
2013-02-11 06:34:00,44.7,43.9,30.02,SSE,157,2.0,2.0,97,0.00,,,0.04,Wunderground v.1.15,2013-02-11 11:34:00,
2013-02-11 06:40:00,44.7,43.9,30.01,SSE,149,0.0,1.0,97,0.00,,,0.04,Wunderground v.1.15,2013-02-11 11:40:00,
2013-02-11 06:45:00,44.6,43.8,30.01,SSE,149,0.0,3.0,97,0.00,,,0.04,Wunderground v.1.15,2013-02-11 11:45:00,
2013-02-11 06:50:00,44.6,43.8,30.01,South,188,0.0,1.0,97,0.00,,,0.04,Wunderground v.1.15,2013-02-11 11:50:00,
2013-02-11 06:55:00,44.6,43.8,30.01,South,187,0.0,1.0,97,0.00,,,0.04,Wunderground v.1.15,2013-02-11 11:55:00,
2013-02-11 07:00:00,44.5,43.7,30.00,SSE,168,0.0,0.0,97,0.00,,,0.04,Wunderground v.1.15,2013-02-11 12:00:00,
2013-02-11 07:05:00,44.4,43.6,30.01,SSE,168,0.0,1.0,97,0.00,,,0.04,Wunderground v.1.15,2013-02-11 12:05:00,
2013-02-11 07:10:00,44.4,43.6,30.01,SSE,168,1.0,1.0,97,0.00,,,0.04,Wunderground v.1.15,2013-02-11 12:10:00,
2013-02-11 07:15:00,44.5,43.7,30.01,SSE,167,0.0,1.0,97,0.00,,,0.04,Wunderground v.1.15,2013-02-11 12:15:00,
2013-02-11 07:20:00,44.6,43.8,30.02,SSE,167,0.0,0.0,97,0.00,,,0.04,Wunderground v.1.15,2013-02-11 12:20:00,
2013-02-11 07:25:00,44.7,43.9,30.03,SSE,167,0.0,1.0,97,0.00,,,0.04,Wunderground v.1.15,2013-02-11 12:25:00,
2013-02-11 07:30:00,44.7,43.9,30.03,SSE,165,1.0,1.0,97,0.00,,,0.04,Wunderground v.1.15,2013-02-11 12:30:00,
2013-02-11 07:35:00,44.7,43.9,30.02,SSE,165,0.0,1.0,97,0.00,,,0.04,Wunderground v.1.15,2013-02-11 12:35:00,
2013-02-11 07:40:00,44.5,43.7,30.03,SSE,165,0.0,0.0,97,0.00,,,0.04,Wunderground v.1.15,2013-02-11 12:40:00,
2013-02-11 07:45:00,44.5,43.7,30.03,SSE,165,0.0,0.0,97,0.00,,,0.04,Wunderground v.1.15,2013-02-11 12:45:00,
2013-02-11 07:50:00,44.5,43.7,30.03,SSE,165,0.0,0.0,97,0.00,,,0.04,Wunderground v.1.15,2013-02-11 12:50:00,
2013-02-11 07:55:00,44.6,43.8,30.03,SSE,165,0.0,0.0,97,0.00,,,0.04,Wunderground v.1.15,2013-02-11 12:55:00,
2013-02-11 08:00:00,44.6,43.8,30.03,SSE,165,0.0,0.0,97,0.00,,,0.04,Wunderground v.1.15,2013-02-11 13:00:00,
2013-02-11 08:05:00,44.6,43.8,30.03,SSE,165,0.0,0.0,97,0.00,,,0.04,Wunderground v.1.15,2013-02-11 13:05:00,
2013-02-11 08:10:00,44.7,43.9,30.03,SSE,165,0.0,0.0,97,0.00,,,0.04,Wunderground v.1.15,2013-02-11 13:10:00,
2013-02-11 08:15:00,44.8,44.0,30.04,SSE,165,0.0,0.0,97,0.00,,,0.04,Wunderground v.1.15,2013-02-11 13:15:00,
2013-02-11 08:20:00,45.0,44.5,30.03,SSE,165,0.0,1.0,98,0.00,,,0.04,Wunderground v.1.15,2013-02-11 13:20:00,
2013-02-11 08:25:00,45.0,44.5,30.03,SSE,165,0.0,1.0,98,0.00,,,0.04,Wunderground v.1.15,2013-02-11 13:25:00,
2013-02-11 08:30:00,45.1,44.6,30.02,SSE,165,0.0,0.0,98,0.00,,,0.04,Wunderground v.1.15,2013-02-11 13:30:00,
2013-02-11 08:35:00,45.1,44.6,30.03,SSE,165,0.0,0.0,98,0.00,,,0.04,Wunderground v.1.15,2013-02-11 13:35:00,
2013-02-11 08:40:00,45.2,44.7,30.03,SSE,165,0.0,0.0,98,0.00,,,0.04,Wunderground v.1.15,2013-02-11 13:40:00,
2013-02-11 08:45:00,45.4,44.9,30.03,SSE,165,0.0,0.0,98,0.00,,,0.04,Wunderground v.1.15,2013-02-11 13:45:00,
2013-02-11 08:50:00,45.7,45.2,30.03,SSE,165,0.0,0.0,98,0.00,,,0.04,Wunderground v.1.15,2013-02-11 13:50:00,
2013-02-11 08:55:00,46.2,45.7,30.04,SSE,165,0.0,1.0,98,0.00,,,0.04,Wunderground v.1.15,2013-02-11 13:55:00,
2013-02-11 09:00:00,46.9,46.4,30.03,South,173,3.0,3.0,98,0.00,,,0.04,Wunderground v.1.15,2013-02-11 14:00:00,
2013-02-11 09:05:00,47.6,47.1,30.03,South,173,0.0,3.0,98,0.00,,,0.04,Wunderground v.1.15,2013-02-11 14:05:00,
2013-02-11 09:10:00,48.1,47.6,30.02,SE,140,3.0,3.0,98,0.00,,,0.04,Wunderground v.1.15,2013-02-11 14:10:00,
2013-02-11 09:15:00,48.3,47.8,30.02,SE,141,0.0,3.0,98,0.00,,,0.04,Wunderground v.1.15,2013-02-11 14:15:00,
2013-02-11 09:20:00,48.7,48.2,30.02,SSE,161,0.0,2.0,98,0.00,,,0.04,Wunderground v.1.15,2013-02-11 14:20:00,
2013-02-11 09:25:00,49.0,48.5,30.01,SE,141,0.0,2.0,98,0.00,,,0.04,Wunderground v.1.15,2013-02-11 14:25:00,
2013-02-11 09:30:00,49.3,48.8,30.01,SSE,147,1.0,2.0,98,0.00,,,0.04,Wunderground v.1.15,2013-02-11 14:30:00,
2013-02-11 09:35:00,49.7,49.2,30.01,SSE,147,0.0,2.0,98,0.00,,,0.04,Wunderground v.1.15,2013-02-11 14:35:00,
2013-02-11 09:40:00,49.9,49.4,30.01,SSE,148,0.0,0.0,98,0.00,,,0.04,Wunderground v.1.15,2013-02-11 14:40:00,
2013-02-11 09:45:00,50.2,49.7,30.01,SSE,148,0.0,1.0,98,0.00,,,0.04,Wunderground v.1.15,2013-02-11 14:45:00,
2013-02-11 09:51:00,50.6,50.1,30.01,SW,221,2.0,2.0,98,0.00,,,0.04,Wunderground v.1.15,2013-02-11 14:51:00,
2013-02-11 09:56:00,51.2,50.7,30.00,SSE,164,2.0,3.0,98,0.00,,,0.04,Wunderground v.1.15,2013-02-11 14:56:00,
2013-02-11 10:01:00,51.4,50.9,30.00,South,184,0.0,1.0,98,0.00,,,0.04,Wunderground v.1.15,2013-02-11 15:01:00,
2013-02-11 10:06:00,51.5,51.0,29.99,SSW,207,0.0,3.0,98,0.00,,,0.04,Wunderground v.1.15,2013-02-11 15:06:00,
2013-02-11 10:11:00,51.7,51.2,29.99,SSW,208,0.0,1.0,98,0.00,,,0.04,Wunderground v.1.15,2013-02-11 15:11:00,
2013-02-11 10:16:00,51.9,51.4,29.99,SSW,209,0.0,1.0,98,0.00,,,0.04,Wunderground v.1.15,2013-02-11 15:16:00,
2013-02-11 10:21:00,52.1,51.6,29.99,SSW,209,0.0,0.0,98,0.00,,,0.04,Wunderground v.1.15,2013-02-11 15:21:00,
2013-02-11 10:26:00,52.5,52.0,29.99,SSW,209,1.0,1.0,98,0.00,,,0.04,Wunderground v.1.15,2013-02-11 15:26:00,
2013-02-11 10:31:00,52.0,51.5,29.99,NNW,342,0.0,1.0,98,0.00,,,0.04,Wunderground v.1.15,2013-02-11 15:31:00,
2013-02-11 10:36:00,51.4,50.9,29.99,NE,46,3.0,3.0,98,0.00,,,0.04,Wunderground v.1.15,2013-02-11 15:36:00,
2013-02-11 10:41:00,50.9,50.4,29.99,NE,36,0.0,1.0,98,0.00,,,0.04,Wunderground v.1.15,2013-02-11 15:41:00,
2013-02-11 10:46:00,50.9,50.4,30.00,NNE,29,0.0,2.0,98,0.00,,,0.04,Wunderground v.1.15,2013-02-11 15:46:00,
2013-02-11 10:51:00,51.0,50.5,30.00,NNE,18,0.0,2.0,98,0.00,,,0.04,Wunderground v.1.15,2013-02-11 15:51:00,
2013-02-11 10:56:00,50.9,50.4,29.99,NW,320,1.0,2.0,98,0.00,,,0.04,Wunderground v.1.15,2013-02-11 15:56:00,
2013-02-11 11:01:00,51.1,50.6,29.99,NW,319,0.0,2.0,98,0.00,,,0.04,Wunderground v.1.15,2013-02-11 16:01:00,
2013-02-11 11:06:00,51.2,50.7,29.99,NW,313,0.0,3.0,98,0.00,,,0.04,Wunderground v.1.15,2013-02-11 16:06:00,
2013-02-11 11:11:00,51.1,50.6,29.99,NW,313,0.0,3.0,98,0.00,,,0.04,Wunderground v.1.15,2013-02-11 16:11:00,
2013-02-11 11:16:00,51.1,50.6,30.00,NW,312,0.0,3.0,98,0.00,,,0.04,Wunderground v.1.15,2013-02-11 16:16:00,
2013-02-11 11:22:00,51.2,50.7,30.00,NW,312,0.0,0.0,98,0.00,,,0.04,Wunderground v.1.15,2013-02-11 16:22:00,
2013-02-11 11:27:00,51.4,50.6,30.00,NW,312,0.0,1.0,97,0.00,,,0.04,Wunderground v.1.15,2013-02-11 16:27:00,
2013-02-11 11:32:00,51.9,51.4,29.99,NW,313,1.0,1.0,98,0.00,,,0.04,Wunderground v.1.15,2013-02-11 16:32:00,
2013-02-11 11:37:00,52.3,51.8,29.98,NE,38,2.0,4.0,98,0.00,,,0.04,Wunderground v.1.15,2013-02-11 16:37:00,
2013-02-11 11:42:00,52.4,51.6,29.99,NE,38,0.0,1.0,97,0.00,,,0.04,Wunderground v.1.15,2013-02-11 16:42:00,
2013-02-11 11:47:00,52.7,51.9,29.99,NE,38,0.0,1.0,97,0.00,,,0.04,Wunderground v.1.15,2013-02-11 16:47:00,
2013-02-11 11:52:00,52.9,52.1,29.99,NE,38,0.0,1.0,97,0.00,,,0.04,Wunderground v.1.15,2013-02-11 16:52:00,
2013-02-11 11:57:00,52.9,52.1,30.00,NE,38,0.0,1.0,97,0.00,,,0.04,Wunderground v.1.15,2013-02-11 16:57:00,
2013-02-11 12:02:00,52.7,51.9,29.99,NE,38,1.0,1.0,97,0.00,,,0.04,Wunderground v.1.15,2013-02-11 17:02:00,
2013-02-11 12:07:00,52.4,51.3,30.00,NE,38,0.0,1.0,96,0.00,,,0.04,Wunderground v.1.15,2013-02-11 17:07:00,
2013-02-11 12:12:00,52.4,51.6,29.99,NE,38,0.0,0.0,97,0.00,,,0.04,Wunderground v.1.15,2013-02-11 17:12:00,
2013-02-11 12:17:00,52.4,51.6,29.98,NE,38,0.0,0.0,97,0.00,,,0.04,Wunderground v.1.15,2013-02-11 17:17:00,
2013-02-11 12:22:00,52.5,51.7,29.98,NE,38,0.0,1.0,97,0.00,,,0.04,Wunderground v.1.15,2013-02-11 17:22:00,
2013-02-11 12:27:00,52.8,52.0,29.97,NE,38,0.0,1.0,97,0.00,,,0.04,Wunderground v.1.15,2013-02-11 17:27:00,
2013-02-11 12:32:00,53.0,52.2,29.96,NE,49,0.0,2.0,97,0.00,,,0.04,Wunderground v.1.15,2013-02-11 17:32:00,
2013-02-11 12:37:00,53.3,52.5,29.95,NE,52,1.0,2.0,97,0.00,,,0.04,Wunderground v.1.15,2013-02-11 17:37:00,
2013-02-11 12:42:00,54.2,53.6,29.94,SSW,199,2.0,3.0,98,0.00,,,0.04,Wunderground v.1.15,2013-02-11 17:42:00,
2013-02-11 12:47:00,55.2,54.6,29.93,SSE,150,4.0,6.0,98,0.00,,,0.04,Wunderground v.1.15,2013-02-11 17:47:00,
2013-02-11 12:52:00,55.7,55.1,29.93,SSE,164,0.0,5.0,98,0.00,,,0.04,Wunderground v.1.15,2013-02-11 17:52:00,
2013-02-11 12:57:00,56.0,55.4,29.93,SW,229,3.0,5.0,98,0.00,,,0.04,Wunderground v.1.15,2013-02-11 17:57:00,
2013-02-11 13:02:00,56.2,55.6,29.93,SSW,197,1.0,7.0,98,0.00,,,0.04,Wunderground v.1.15,2013-02-11 18:02:00,
2013-02-11 13:07:00,56.4,55.8,29.92,South,190,3.0,7.0,98,0.00,,,0.04,Wunderground v.1.15,2013-02-11 18:07:00,
2013-02-11 13:12:00,56.6,55.8,29.92,SSW,209,2.0,6.0,97,0.00,,,0.04,Wunderground v.1.15,2013-02-11 18:12:00,
2013-02-11 13:17:00,56.6,55.8,29.92,SSW,212,0.0,6.0,97,0.00,,,0.04,Wunderground v.1.15,2013-02-11 18:17:00,
2013-02-11 13:22:00,56.8,56.0,29.92,SW,231,1.0,4.0,97,0.00,,,0.04,Wunderground v.1.15,2013-02-11 18:22:00,
2013-02-11 13:27:00,56.9,55.8,29.92,SSW,204,1.0,5.0,96,0.00,,,0.04,Wunderground v.1.15,2013-02-11 18:27:00,
2013-02-11 13:32:00,57.2,56.1,29.92,SW,227,0.0,4.0,96,0.00,,,0.04,Wunderground v.1.15,2013-02-11 18:32:00,
2013-02-11 13:37:00,57.3,56.2,29.92,South,176,2.0,5.0,96,0.00,,,0.04,Wunderground v.1.15,2013-02-11 18:37:00,
2013-02-11 13:42:00,57.3,55.9,29.93,SSW,211,0.0,6.0,95,0.00,,,0.04,Wunderground v.1.15,2013-02-11 18:42:00,
2013-02-11 13:47:00,57.5,56.1,29.93,SW,214,1.0,6.0,95,0.00,,,0.04,Wunderground v.1.15,2013-02-11 18:47:00,
2013-02-11 13:52:00,57.7,56.3,29.93,SSW,205,0.0,3.0,95,0.00,,,0.04,Wunderground v.1.15,2013-02-11 18:52:00,
2013-02-11 13:57:00,58.0,56.6,29.94,WNW,284,0.0,5.0,95,0.00,,,0.04,Wunderground v.1.15,2013-02-11 18:57:00,
2013-02-11 14:02:00,58.2,56.5,29.95,WNW,282,3.0,4.0,94,0.00,,,0.04,Wunderground v.1.15,2013-02-11 19:02:00,
2013-02-11 14:07:00,57.5,55.2,29.95,NW,309,0.0,13.0,92,0.00,,,0.04,Wunderground v.1.15,2013-02-11 19:07:00,
2013-02-11 14:12:00,56.7,54.4,29.94,NW,318,1.0,4.0,92,0.00,,,0.04,Wunderground v.1.15,2013-02-11 19:12:00,
2013-02-11 14:17:00,56.3,54.3,29.94,NW,317,2.0,4.0,93,0.00,,,0.04,Wunderground v.1.15,2013-02-11 19:17:00,
2013-02-11 14:22:00,56.1,54.4,29.94,WNW,299,5.0,6.0,94,0.00,,,0.04,Wunderground v.1.15,2013-02-11 19:22:00,
2013-02-11 14:27:00,56.0,54.3,29.93,NW,309,2.0,6.0,94,0.00,,,0.04,Wunderground v.1.15,2013-02-11 19:27:00,
2013-02-11 14:32:00,55.8,54.1,29.93,NW,304,3.0,4.0,94,0.00,,,0.04,Wunderground v.1.15,2013-02-11 19:32:00,
2013-02-11 14:37:00,55.6,53.9,29.93,WNW,302,0.0,5.0,94,0.00,,,0.04,Wunderground v.1.15,2013-02-11 19:37:00,
2013-02-11 14:42:00,55.6,54.2,29.92,WNW,302,0.0,1.0,95,0.00,,,0.04,Wunderground v.1.15,2013-02-11 19:42:00,
2013-02-11 14:48:00,55.8,54.4,29.92,WNW,302,0.0,1.0,95,0.00,,,0.04,Wunderground v.1.15,2013-02-11 19:48:00,
2013-02-11 14:53:00,55.9,54.5,29.92,WNW,302,0.0,1.0,95,0.00,,,0.04,Wunderground v.1.15,2013-02-11 19:53:00,
2013-02-11 14:58:00,56.1,54.7,29.91,WNW,302,0.0,1.0,95,0.00,,,0.04,Wunderground v.1.15,2013-02-11 19:58:00,
2013-02-11 15:03:00,56.3,54.9,29.91,WNW,292,0.0,5.0,95,0.00,,,-99.99,WeatherLink 6.0.0,2013-02-11 20:03:00,
2013-02-11 15:08:00,56.6,54.9,29.91,WNW,302,0.0,0.0,94,0.00,,,0.04,Wunderground v.1.15,2013-02-11 20:08:00,
2013-02-11 15:13:00,56.7,55.0,29.91,WNW,302,0.0,0.0,94,0.00,,,0.04,Wunderground v.1.15,2013-02-11 20:13:00,
2013-02-11 15:18:00,56.9,55.2,29.91,WNW,302,0.0,0.0,94,0.00,,,0.04,Wunderground v.1.15,2013-02-11 20:18:00,
2013-02-11 15:23:00,57.1,55.4,29.91,WNW,302,0.0,0.0,94,0.00,,,0.04,Wunderground v.1.15,2013-02-11 20:23:00,
2013-02-11 15:28:00,57.3,55.6,29.91,WNW,302,0.0,0.0,94,0.00,,,0.04,Wunderground v.1.15,2013-02-11 20:28:00,
2013-02-11 15:33:00,57.4,55.7,29.91,WNW,302,0.0,0.0,94,0.00,,,0.04,Wunderground v.1.15,2013-02-11 20:33:00,
2013-02-11 15:38:00,57.6,55.9,29.91,WNW,302,0.0,0.0,94,0.00,,,0.04,Wunderground v.1.15,2013-02-11 20:38:00,
2013-02-11 15:43:00,57.8,56.1,29.91,WNW,302,0.0,1.0,94,0.00,,,0.04,Wunderground v.1.15,2013-02-11 20:43:00,
2013-02-11 15:48:00,58.0,56.3,29.91,SSW,202,0.0,4.0,94,0.00,,,0.04,Wunderground v.1.15,2013-02-11 20:48:00,
2013-02-11 15:53:00,58.1,56.1,29.91,SW,227,0.0,2.0,93,0.00,,,0.04,Wunderground v.1.15,2013-02-11 20:53:00,
2013-02-11 15:58:00,58.2,56.2,29.92,SSE,164,1.0,2.0,93,0.00,,,0.04,Wunderground v.1.15,2013-02-11 20:58:00,
2013-02-11 16:03:00,58.3,56.3,29.91,WSW,247,2.0,2.0,93,0.00,,,0.04,Wunderground v.1.15,2013-02-11 21:03:00,
2013-02-11 16:08:00,58.4,56.4,29.91,WSW,240,0.0,2.0,93,0.00,,,0.04,Wunderground v.1.15,2013-02-11 21:08:00,
2013-02-11 16:13:00,58.4,56.4,29.91,WSW,241,1.0,3.0,93,0.00,,,0.04,Wunderground v.1.15,2013-02-11 21:13:00,
2013-02-11 16:18:00,58.4,56.4,29.91,West,261,2.0,3.0,93,0.00,,,0.04,Wunderground v.1.15,2013-02-11 21:18:00,
2013-02-11 16:23:00,58.4,56.4,29.91,West,261,0.0,1.0,93,0.00,,,0.04,Wunderground v.1.15,2013-02-11 21:23:00,
2013-02-11 16:28:00,58.6,56.6,29.91,WSW,257,0.0,1.0,93,0.00,,,0.04,Wunderground v.1.15,2013-02-11 21:28:00,
2013-02-11 16:33:00,58.6,56.6,29.91,WSW,257,0.0,0.0,93,0.00,,,0.04,Wunderground v.1.15,2013-02-11 21:33:00,
2013-02-11 16:38:00,58.7,56.7,29.91,WSW,257,0.0,0.0,93,0.00,,,0.04,Wunderground v.1.15,2013-02-11 21:38:00,
2013-02-11 16:43:00,58.8,56.8,29.90,SW,221,0.0,2.0,93,0.00,,,0.04,Wunderground v.1.15,2013-02-11 21:43:00,
2013-02-11 16:48:00,58.9,56.6,29.91,SW,221,0.0,2.0,92,0.00,,,0.04,Wunderground v.1.15,2013-02-11 21:48:00,
2013-02-11 16:53:00,59.0,56.7,29.91,SW,221,0.0,0.0,92,0.00,,,0.04,Wunderground v.1.15,2013-02-11 21:53:00,
2013-02-11 16:58:00,58.9,56.6,29.91,SW,221,0.0,0.0,92,0.00,,,0.04,Wunderground v.1.15,2013-02-11 21:58:00,
2013-02-11 17:03:00,58.8,56.5,29.92,SW,221,0.0,0.0,92,0.00,,,0.04,Wunderground v.1.15,2013-02-11 22:03:00,
2013-02-11 17:08:00,58.6,56.6,29.91,SW,221,0.0,0.0,93,0.00,,,0.04,Wunderground v.1.15,2013-02-11 22:08:00,
2013-02-11 17:13:00,58.4,56.4,29.91,SW,221,0.0,0.0,93,0.00,,,0.04,Wunderground v.1.15,2013-02-11 22:13:00,
2013-02-11 17:18:00,58.2,56.2,29.91,SW,221,0.0,0.0,93,0.00,,,0.04,Wunderground v.1.15,2013-02-11 22:18:00,
2013-02-11 17:23:00,58.1,56.1,29.91,SW,221,0.0,0.0,93,0.00,,,0.04,Wunderground v.1.15,2013-02-11 22:23:00,
2013-02-11 17:28:00,57.9,55.9,29.91,SW,221,0.0,0.0,93,0.00,,,0.04,Wunderground v.1.15,2013-02-11 22:28:00,
2013-02-11 17:33:00,57.8,55.8,29.91,North,-999,0.0,0.0,93,0.00,,,-99.99,WeatherLink 6.0.0,2013-02-11 22:33:00,
2013-02-11 17:38:00,57.5,55.8,29.92,SW,221,0.0,1.0,94,0.00,,,0.04,Wunderground v.1.15,2013-02-11 22:38:00,
2013-02-11 17:43:00,57.2,55.5,29.92,SW,219,0.0,2.0,94,0.00,,,0.04,Wunderground v.1.15,2013-02-11 22:43:00,
2013-02-11 17:48:00,56.9,55.2,29.92,SW,219,0.0,2.0,94,0.00,,,0.04,Wunderground v.1.15,2013-02-11 22:48:00,
2013-02-11 17:53:00,56.6,54.3,29.92,SW,219,0.0,0.0,92,0.00,,,0.04,Wunderground v.1.15,2013-02-11 22:53:00,
2013-02-11 17:58:00,56.2,52.7,29.93,SW,219,0.0,2.0,88,0.00,,,0.04,Wunderground v.1.15,2013-02-11 22:58:00,
2013-02-11 18:00:00,56.1,52.3,29.93,SW,225,0.0,2.0,87,0.00,,,-99.99,WeatherLink 6.0.0,2013-02-11 23:00:00,
2013-02-11 18:04:00,56.0,51.6,29.92,SW,219,0.0,0.0,85,0.00,,,0.04,Wunderground v.1.15,2013-02-11 23:04:00,
2013-02-11 18:09:00,56.0,50.6,29.93,SW,219,0.0,1.0,82,0.00,,,0.04,Wunderground v.1.15,2013-02-11 23:09:00,
2013-02-11 18:14:00,56.0,50.6,29.92,SW,219,0.0,0.0,82,0.00,,,0.04,Wunderground v.1.15,2013-02-11 23:14:00,
2013-02-11 18:19:00,55.9,50.5,29.92,SW,219,0.0,0.0,82,0.00,,,0.04,Wunderground v.1.15,2013-02-11 23:19:00,
2013-02-11 18:24:00,55.7,50.6,29.92,SW,219,0.0,1.0,83,0.00,,,0.04,Wunderground v.1.15,2013-02-11 23:24:00,
2013-02-11 18:29:00,55.5,50.7,29.93,SW,219,0.0,1.0,84,0.00,,,0.04,Wunderground v.1.15,2013-02-11 23:29:00,
2013-02-11 18:34:00,55.3,49.6,29.94,SW,219,0.0,1.0,81,0.00,,,0.04,Wunderground v.1.15,2013-02-11 23:34:00,
2013-02-11 18:39:00,55.4,49.3,29.93,SW,219,0.0,1.0,80,0.00,,,0.04,Wunderground v.1.15,2013-02-11 23:39:00,
2013-02-11 18:44:00,55.5,49.4,29.94,SW,219,0.0,1.0,80,0.00,,,0.04,Wunderground v.1.15,2013-02-11 23:44:00,
2013-02-11 18:49:00,55.3,49.2,29.94,SW,219,0.0,1.0,80,0.00,,,0.04,Wunderground v.1.15,2013-02-11 23:49:00,
2013-02-11 18:54:00,55.2,49.1,29.94,SW,219,0.0,0.0,80,0.00,,,0.04,Wunderground v.1.15,2013-02-11 23:54:00,
2013-02-11 18:59:00,55.1,47.3,29.94,NW,304,4.0,7.0,75,0.00,,,0.04,Wunderground v.1.15,2013-02-11 23:59:00,
2013-02-11 19:04:00,55.5,46.2,29.94,NW,304,0.0,2.0,71,0.00,,,0.04,Wunderground v.1.15,2013-02-12 00:04:00,
2013-02-11 19:09:00,55.6,46.7,29.94,NW,304,0.0,2.0,72,0.00,,,0.04,Wunderground v.1.15,2013-02-12 00:09:00,
2013-02-11 19:14:00,55.4,46.9,29.94,NW,304,0.0,0.0,73,0.00,,,0.04,Wunderground v.1.15,2013-02-12 00:14:00,
2013-02-11 19:19:00,55.1,46.6,29.95,NW,304,0.0,1.0,73,0.00,,,0.04,Wunderground v.1.15,2013-02-12 00:19:00,
2013-02-11 19:24:00,55.0,45.0,29.94,WNW,298,0.0,3.0,69,0.00,,,0.04,Wunderground v.1.15,2013-02-12 00:24:00,
2013-02-11 19:29:00,54.7,44.3,29.95,WNW,298,0.0,3.0,68,0.00,,,0.04,Wunderground v.1.15,2013-02-12 00:29:00,
2013-02-11 19:30:00,54.7,44.0,29.95,NW,315,0.0,3.0,67,0.00,,,-99.99,WeatherLink 6.0.0,2013-02-12 00:30:00,
2013-02-11 19:34:00,54.5,43.4,29.95,WNW,298,0.0,2.0,66,0.00,,,0.04,Wunderground v.1.15,2013-02-12 00:34:00,
2013-02-11 19:39:00,54.4,42.9,29.96,WNW,298,0.0,3.0,65,0.00,,,0.04,Wunderground v.1.15,2013-02-12 00:39:00,
2013-02-11 19:44:00,54.4,41.2,29.96,WNW,298,0.0,2.0,61,0.00,,,0.04,Wunderground v.1.15,2013-02-12 00:44:00,
2013-02-11 19:49:00,54.4,40.8,29.96,WNW,298,1.0,2.0,60,0.00,,,0.04,Wunderground v.1.15,2013-02-12 00:49:00,
2013-02-11 19:54:00,54.5,39.6,29.96,WNW,298,0.0,2.0,57,0.00,,,0.04,Wunderground v.1.15,2013-02-12 00:54:00,
2013-02-11 19:59:00,54.6,38.7,29.96,WNW,298,0.0,2.0,55,0.00,,,0.04,Wunderground v.1.15,2013-02-12 00:59:00,
2013-02-11 20:04:00,54.5,39.1,29.95,WNW,298,0.0,1.0,56,0.00,,,0.04,Wunderground v.1.15,2013-02-12 01:04:00,
2013-02-11 20:09:00,54.4,37.6,29.96,WNW,298,0.0,2.0,53,0.00,,,0.04,Wunderground v.1.15,2013-02-12 01:09:00,
2013-02-11 20:14:00,54.6,37.3,29.95,WNW,298,0.0,1.0,52,0.00,,,0.04,Wunderground v.1.15,2013-02-12 01:14:00,
2013-02-11 20:19:00,54.6,37.3,29.95,WNW,298,0.0,1.0,52,0.00,,,0.04,Wunderground v.1.15,2013-02-12 01:19:00,
2013-02-11 20:24:00,54.6,37.3,29.95,WNW,298,0.0,1.0,52,0.00,,,0.04,Wunderground v.1.15,2013-02-12 01:24:00,
2013-02-11 20:29:00,54.5,37.2,29.94,WNW,298,0.0,1.0,52,0.00,,,0.04,Wunderground v.1.15,2013-02-12 01:29:00,
2013-02-11 20:34:00,54.1,36.4,29.94,WNW,298,0.0,2.0,51,0.00,,,0.04,Wunderground v.1.15,2013-02-12 01:34:00,
2013-02-11 20:39:00,53.9,38.6,29.94,NW,315,4.0,6.0,56,0.00,,,0.04,Wunderground v.1.15,2013-02-12 01:39:00,
2013-02-11 20:44:00,54.2,35.9,29.94,WSW,257,1.0,5.0,50,0.00,,,0.04,Wunderground v.1.15,2013-02-12 01:44:00,
2013-02-11 20:49:00,54.6,36.8,29.94,WNW,298,2.0,6.0,51,0.00,,,0.04,Wunderground v.1.15,2013-02-12 01:49:00,
2013-02-11 20:54:00,54.7,35.9,29.95,NW,304,1.0,4.0,49,0.00,,,0.04,Wunderground v.1.15,2013-02-12 01:54:00,
2013-02-11 20:59:00,54.8,36.0,29.95,NW,304,0.0,4.0,49,0.00,,,0.04,Wunderground v.1.15,2013-02-12 01:59:00,
2013-02-11 21:00:00,54.8,36.0,29.95,WNW,292,1.0,6.0,49,0.00,,,-99.99,WeatherLink 6.0.0,2013-02-12 02:00:00,
2013-02-11 21:04:00,54.6,34.2,29.94,WNW,285,3.0,5.0,46,0.00,,,0.04,Wunderground v.1.15,2013-02-12 02:04:00,
2013-02-11 21:09:00,55.1,33.6,29.94,WNW,297,2.0,9.0,44,0.00,,,0.04,Wunderground v.1.15,2013-02-12 02:09:00,
2013-02-11 21:15:00,55.3,33.7,29.93,WNW,292,0.0,5.0,44,0.00,,,0.04,Wunderground v.1.15,2013-02-12 02:15:00,
2013-02-11 21:20:00,55.3,33.2,29.94,WNW,290,1.0,1.0,43,0.00,,,0.04,Wunderground v.1.15,2013-02-12 02:20:00,
2013-02-11 21:25:00,55.2,32.5,29.94,NW,306,2.0,4.0,42,0.00,,,0.04,Wunderground v.1.15,2013-02-12 02:25:00,
2013-02-11 21:30:00,55.0,32.9,29.94,WSW,239,5.0,5.0,43,0.00,,,0.04,Wunderground v.1.15,2013-02-12 02:30:00,
2013-02-11 21:35:00,55.0,33.5,29.94,NNW,327,4.0,5.0,44,0.00,,,0.04,Wunderground v.1.15,2013-02-12 02:35:00,
2013-02-11 21:40:00,55.0,32.3,29.94,WNW,298,3.0,3.0,42,0.00,,,0.04,Wunderground v.1.15,2013-02-12 02:40:00,
2013-02-11 21:45:00,55.0,31.1,29.94,West,277,1.0,3.0,40,0.00,,,0.04,Wunderground v.1.15,2013-02-12 02:45:00,
2013-02-11 21:50:00,55.0,33.5,29.94,WNW,295,2.0,4.0,44,0.00,,,0.04,Wunderground v.1.15,2013-02-12 02:50:00,
2013-02-11 21:55:00,55.0,31.1,29.94,WNW,298,1.0,5.0,40,0.00,,,0.04,Wunderground v.1.15,2013-02-12 02:55:00,
2013-02-11 22:00:00,55.2,31.9,29.94,WNW,292,1.0,3.0,41,0.00,,,0.04,Wunderground v.1.15,2013-02-12 03:00:00,
2013-02-11 22:05:00,55.2,32.5,29.94,WNW,292,2.0,5.0,42,0.00,,,0.04,Wunderground v.1.15,2013-02-12 03:05:00,
2013-02-11 22:10:00,54.8,32.1,29.94,WNW,292,2.0,3.0,42,0.00,,,0.04,Wunderground v.1.15,2013-02-12 03:10:00,
2013-02-11 22:16:00,54.9,32.2,29.95,NW,304,0.0,5.0,42,0.00,,,0.04,Wunderground v.1.15,2013-02-12 03:16:00,
2013-02-11 22:21:00,54.9,31.0,29.94,WNW,284,0.0,5.0,40,0.00,,,0.04,Wunderground v.1.15,2013-02-12 03:21:00,
2013-02-11 22:26:00,55.0,32.9,29.94,WNW,288,0.0,6.0,43,0.00,,,0.04,Wunderground v.1.15,2013-02-12 03:26:00,
2013-02-11 22:30:00,54.9,31.0,29.94,WNW,292,2.0,6.0,40,0.00,,,-99.99,WeatherLink 6.0.0,2013-02-12 03:30:00,
2013-02-11 22:31:00,54.9,31.6,29.94,WNW,288,0.0,5.0,41,0.00,,,0.04,Wunderground v.1.15,2013-02-12 03:31:00,
2013-02-11 22:36:00,55.0,32.9,29.94,WNW,298,1.0,7.0,43,0.00,,,0.04,Wunderground v.1.15,2013-02-12 03:36:00,
2013-02-11 22:41:00,54.7,32.6,29.94,WNW,297,4.0,7.0,43,0.00,,,0.04,Wunderground v.1.15,2013-02-12 03:41:00,
2013-02-11 22:46:00,54.9,32.2,29.94,WNW,294,3.0,7.0,42,0.00,,,0.04,Wunderground v.1.15,2013-02-12 03:46:00,
2013-02-11 22:51:00,54.8,33.3,29.93,West,280,4.0,4.0,44,0.00,,,0.04,Wunderground v.1.15,2013-02-12 03:51:00,
2013-02-11 22:56:00,54.6,33.1,29.93,West,280,0.0,4.0,44,0.00,,,0.04,Wunderground v.1.15,2013-02-12 03:56:00,
2013-02-11 23:00:00,54.4,33.5,29.93,WNW,292,2.0,7.0,45,0.00,,,-99.99,WeatherLink 6.0.0,2013-02-12 04:00:00,
2013-02-11 23:01:00,54.3,33.4,29.93,West,280,2.0,2.0,45,0.00,,,0.04,Wunderground v.1.15,2013-02-12 04:01:00,
2013-02-11 23:06:00,54.1,32.6,29.93,WNW,302,3.0,3.0,44,0.00,,,0.04,Wunderground v.1.15,2013-02-12 04:06:00,
2013-02-11 23:11:00,54.1,32.1,29.93,NW,306,1.0,4.0,43,0.00,,,0.04,Wunderground v.1.15,2013-02-12 04:11:00,
2013-02-11 23:16:00,54.2,31.0,29.93,NW,304,3.0,7.0,41,0.00,,,0.04,Wunderground v.1.15,2013-02-12 04:16:00,
2013-02-11 23:21:00,54.6,31.3,29.92,WNW,294,3.0,7.0,41,0.00,,,0.04,Wunderground v.1.15,2013-02-12 04:21:00,
2013-02-11 23:26:00,54.6,30.7,29.92,West,279,5.0,10.0,40,0.00,,,0.04,Wunderground v.1.15,2013-02-12 04:26:00,
2013-02-11 23:31:00,54.5,31.3,29.91,WNW,300,0.0,5.0,41,0.00,,,0.04,Wunderground v.1.15,2013-02-12 04:31:00,
2013-02-11 23:36:00,54.4,30.6,29.91,WNW,291,0.0,10.0,40,0.00,,,0.04,Wunderground v.1.15,2013-02-12 04:36:00,
2013-02-11 23:41:00,54.3,31.1,29.91,WNW,303,3.0,7.0,41,0.00,,,0.04,Wunderground v.1.15,2013-02-12 04:41:00,
2013-02-11 23:46:00,54.1,30.9,29.91,WNW,296,1.0,10.0,41,0.00,,,0.04,Wunderground v.1.15,2013-02-12 04:46:00,
2013-02-11 23:51:00,53.9,31.9,29.92,WNW,296,0.0,2.0,43,0.00,,,0.04,Wunderground v.1.15,2013-02-12 04:51:00,
2013-02-11 23:56:00,53.7,32.8,29.92,NW,306,1.0,4.0,45,0.00,,,0.04,Wunderground v.1.15,2013-02-12 04:56:00,